Location: College Park
(38.9810°N, 76.9370°W)
Time: 05:17:17
(UTC-05:00)

Tiangong 2 - Pass Details

Date: 18 February 2018
Orbit: 384 x 389 km, 42.8° (Epoch: 23 February)

Event Time Altitude Azimuth Distance (km) Brightness Sun altitude
Rises 20:19:06 0° 289° (WNW) 2,263 6.1 -29.8°
Reaches altitude 10° 20:21:12 10° 285° (WNW) 1,406 4.8 -30.2°
Enters shadow 20:21:24 11° 285° (WNW) 1,322 4.6 -30.3°
